|  Orbital Elements
Epoch 2020 Mar. 12.0 TT = JDT 2458920.5
T 2020 Mar. 17.41164 TT                                 Rudenko
q   0.5058139            (2000.0)            P               Q
n   0.14386575     Peri.  207.64872     +0.05998684     -0.95965400
a   3.6071520      Node   240.10158     +0.96433087     +0.12679342
e   0.8597747      Incl.   18.47461     +0.25781302     -0.25097335
P   6.85
From 468 observations 2020 Apr. 13-June 20, mean residual 0".9.
 
 |